Location: Quaker Farms
(41.4276°N, 73.1557°W)
Time: 19:57:00
(UTC+00:00)

S-56A Canister/Altair - Pass Details

Date: 14 June 2021
Orbit: 631 x 2501 km, 38.9° (Epoch: 30 July)

Event Time Altitude Azimuth Distance (km) Brightness Sun altitude
Rises 09:31:47 0° 204° (SSW) 2,901 10.0 1.3°
Reaches altitude 10° 09:34:45 10° 181° (S) 2,030 9.4 1.8°
Maximum altitude 09:37:34 16° 142° (SE) 1,746 9.5 2.2°
Drops below altitude 10° 09:40:40 10° 105° (ESE) 2,285 10.8 2.7°
Sets 09:44:19 0° 84° (E) 3,473 12.4 3.3°
